Regional Weather Roundup
Issued by NWS

Home | Current Version | Previous Version | Graphics & Text | Print | Product List | Glossary On
Versions: 1 2 3 4 5 6 7 8 9 10 11 12 13 14 15 16 17 18 19 20 21 22 23 24 25 26 27 28 29 30 31 32 33 34 35 36 37 38 39 40 41 42 43 44 45 46 47 48 49 50
000
ASUS43 KFSD 290002
RWRSD

WEATHER ROUNDUP FOR SOUTH DAKOTA
NATIONAL WEATHER SERVICE SIOUX FALLS SD
600 PM CST SUN DEC 28 2014

NOTE: "FAIR" INDICATES FEW OR NO CLOUDS BELOW 12,000 FEET WITH NO
SIGNIFICANT WEATHER AND/OR OBSTRUCTIONS TO VISIBILITY.


SDZ001>005-009-010-012>017-290100-
NORTHWEST AND NORTH CENTRAL SOUTH DAKOTA

CITY           SKY/WX    TMP DP  RH WIND       PRES   REMARKS
BUFFALO          N/A     19  15  84 NE14      29.98R WCI   6
FAITH            N/A     17  14  88 E15       30.09R WCI   2
MOBRIDGE       CLOUDY    11   6  81 E8        30.20R WCI  -1
$$

SDZ012>016-024>037-041>051-057-063-072>074-290100-
SOUTHWEST AND SOUTH CENTRAL SOUTH DAKOTA

CITY           SKY/WX    TMP DP  RH WIND       PRES   REMARKS
RAPID CTY ARPT LGT SNOW  18  14  84 NE9       30.01R FOG     WCI   7
PIERRE         LGT SNOW  19  16  88 E14       30.14R FOG     WCI   6
CUSTER         CLOUDY    17  12  80 NE7       29.85R HAZE    WCI   8
ELLSWORTH AFB  CLOUDY    18  13  83 E8        30.01  WCI   7
PHILIP         FLURRIES  19  14  81 E15       30.09R WCI   5
PINE RIDGE     LGT SNOW  24  21  88 E6        29.96R FOG     WCI  17
WINNER         CLOUDY    19  15  84 E13       30.10R WCI   6
$$

SDZ004>011-016>023-039-040-290100-
NORTHEAST SOUTH DAKOTA

CITY           SKY/WX    TMP DP  RH WIND       PRES   REMARKS
ABERDEEN       MOCLDY     7  -1  70 NE10      30.28R WCI  -8
WATERTOWN      CLOUDY     8   3  80 NE12      30.19R WCI  -7
SISSETON         N/A      6   1  80 N9        30.31  WCI  -8
$$

SDZ017-020-022-023-036>040-048>070-290100-
SOUTHEAST SOUTH DAKOTA

CITY           SKY/WX    TMP DP  RH WIND       PRES   REMARKS
SIOUX FALLS    CLOUDY    20  17  88 NE12      30.18R WCI   8
HURON          CLOUDY    17  13  84 E7        30.22R WCI   8
MITCHELL       CLOUDY    21  18  88 E5        30.20R WCI  15
YANKTON        CLOUDY    18  14  86 NE8       30.19R WCI   7
$$

ABBREVIATIONS USED IN REMARKS
   TC - TEMPERATURE IN CELSIUS
  WCI - WIND CHILL INDEX
   HX - HEAT INDEX
  VSB - VISIBILITY




USA.gov is the U.S. government's official web portal to all federal, state and local government web resources and services.